This demonstration page uses our WeatherBlox Daily Observations layout. Learn more.

Left ArrowRight Arrow

39.12711, -84.51439

Hourly Observations for September 20, 2022

Temp ( °F °C ) Dew Point ( °F °C ) Humidity (%) Winds ( mph kmh ) Pressure ( in mb ) Visibility ( mi km ) Precip ( " mm )
12:06 am 00:06 Clear with Mist and Fog 66 18.9 66 18.9 100 100 Calm 30.01 1016 2 3 0.00 0.00
12:13 am 00:13 Clear with Mist and Fog 66 18.9 66 18.9 100 100 Calm 30.01 1016 4 6 0.00 0.00
12:25 am 00:25 Mostly Clear with Mist and Fog 65 18.3 65 18.3 100 100 Calm 30.01 1016 1 1 0.00 0.00
12:33 am 00:33 Mostly Clear with Mist and Fog 66 18.9 66 18.9 100 100 Calm 30.01 1016 1 2 0.00 0.00
12:38 am 00:38 Mostly Clear with Mist and Fog 65 18.3 65 18.3 100 100 Calm 30.01 1016 1 1 0.00 0.00
12:53 am 00:53 Mostly Clear with Fog 65 18.3 65 18.3 100 100 Calm 30.01 1016 0 0 0.00 0.00
1:10 am 01:10 Mostly Clear with Mist and Fog 64 17.8 64 17.8 100 100 Calm 30.01 1016 1 1 0.00 0.00
1:26 am 01:26 Mostly Clear with Fog 64 17.8 64 17.8 100 100 Calm 30.01 1016 0 0 0.00 0.00
1:53 am 01:53 Mostly Clear with Fog 64 17.8 64 17.8 100 100 Calm 30.01 1016 0 0 0.00 0.00
2:53 am 02:53 Mostly Clear with Fog 65 18.3 65 18.3 100 100 Calm 30.02 1017 0 0 0.00 0.00
3:26 am 03:26 Mostly Clear with Fog 65 18.3 65 18.3 100 100 Calm 30.03 1017 0 0 0.00 0.00
3:53 am 03:53 Mostly Clear with Fog 66 18.9 66 18.9 100 100 Calm 30.02 1017 0 0 0.00 0.00
4:05 am 04:05 Mostly Clear with Fog 66 18.9 66 18.9 100 100 Calm 30.02 1017 0 0 0.00 0.00
4:13 am 04:13 Mostly Clear with Fog 66 18.9 66 18.9 100 100 Calm 30.02 1017 0 0 0.00 0.00
4:53 am 04:53 Mostly Clear with Fog 66 18.9 66 18.9 100 100 Calm 30.02 1017 0 0 0.00 0.00
5:53 am 05:53 Mostly Clear with Fog 66 18.9 66 18.9 100 100 Calm 30.03 1017 0 0 0.00 0.00
6:53 am 06:53 Mostly Clear with Fog 64 17.8 64 17.8 100 100 Calm 30.03 1017 0 0 0.00 0.00
7:53 am 07:53 Partly Cloudy with Fog 64 17.8 64 17.8 100 100 Calm 30.05 1018 0 0 0.00 0.00
8:53 am 08:53 Partly Cloudy with Fog 64 17.8 64 17.8 100 100 Calm 30.05 1018 0 0 0.00 0.00
9:53 am 09:53 Partly Cloudy with Fog 66 18.9 66 18.9 100 100 Calm 30.07 1018 0 0 0.00 0.00
10:32 am 10:32 Partly Cloudy with Fog 67 19.4 67 19.4 100 100 Calm 30.07 1018 1 1 0.00 0.00
10:42 am 10:42 Mostly Cloudy with Mist and Fog 67 19.4 67 19.4 100 100 Calm 30.07 1018 1 2 0.00 0.00
10:53 am 10:53 Partly Cloudy with Mist and Fog 69 20.6 68 20 96 96 Calm 30.07 1018 4 6 0.00 0.00
11:53 am 11:53 Sunny 77 25 69 20.6 77 77 SW 5 7 30.06 1018 10 16 0.00 0.00
12:53 pm 12:53 Sunny 81 27.2 65 18.3 58 58 VRB 3 6 30.04 1017 10 16 0.00 0.00
1:53 pm 13:53 Sunny 83 28.3 65 18.3 55 55 VRB 3 6 30.03 1017 10 16 0.00 0.00
2:53 pm 14:53 Sunny 84 28.9 65 18.3 53 53 S 3 6 30.01 1016 10 16 0.00 0.00
3:53 pm 15:53 Sunny 86 30 63 17.2 46 46 Calm 30.00 1016 10 16 0.00 0.00
4:53 pm 16:53 Mostly Sunny 85 29.4 65 18.3 51 51 ENE 5 7 29.99 1016 10 16 0.00 0.00
5:53 pm 17:53 Sunny 83 28.3 68 20 61 61 E 3 6 29.99 1016 10 16 0.00 0.00
6:53 pm 18:53 Sunny 80 26.7 70 21.1 71 71 S 5 7 29.98 1015 10 16 0.00 0.00
7:53 pm 19:53 Clear 73 22.8 69 20.6 87 87 Calm 29.99 1016 9 14 0.00 0.00
8:53 pm 20:53 Clear 70 21.1 67 19.4 90 90 Calm 30.00 1016 9 14 0.00 0.00
9:53 pm 21:53 Clear 68 20 66 18.9 93 93 Calm 30.00 1016 9 14 0.00 0.00
10:53 pm 22:53 Clear with Mist and Fog 65 18.3 64 17.8 97 97 NE 5 7 29.98 1015 6 10 0.00 0.00
11:53 pm 23:53 Clear 65 18.3 65 18.3 100 100 Calm 29.98 1015 7 11 0.00 0.00

Powered by AerisWeather